Terminal Aerodrome Forecast
Issued by NWS

Home | Current Version | Previous Version | Text Only | Print | Product List | Glossary On
Versions: 1 2 3 4 5 6 7 8 9 10 11 12 13 14 15 16 17 18 19
000
FTUS46 KOTX 241303 AAA
TAFPUW
TAF AMD
KPUW 241303Z 2413/2512 10009G15KT P6SM -RA OVC045
     FM241500 11015KT 5SM -RA BR SCT025 OVC040
     FM241800 14012KT 4SM -RA BR SCT012 OVC021
     FM250100 21006KT P6SM -SHRA SCT025 OVC040
     FM250700 21005KT P6SM BKN090 OVC200=

USA.gov is the U.S. government's official web portal to all federal, state and local government web resources and services.